Flag for Germany Weather past 2 weeks in Varel, Lower Saxony, Germany

Now
75 °F

Passing clouds.


Feels Like: 78 °F
Forecast: 62 / 79 °F
Wind: 13 mph from East

Location: Wittmundhaven

Current Time: Jul 23, 2014 at 10:58:38 AM

Latest Report: Jul 23, 2014 at 10:20 AM


Visibility: N/A

Pressure: 30.18 "Hg

Humidity: 50%

Dew point: 55 °F

Location of VarelLocation

Historic Weather in Varel — Graph

°F

Varel temperature yesterday

Maximum temperature yesterday: 81 °F (at 3:20 PM)
Minimum temperature yesterday: 63 °F (at 3:20 AM)
Average temperature yesterday: 71 °F

Past Weeks' High & Low Weather Summary

 TemperatureHumidityPressure
High91 °F (Jul 19, 2:20 PM)100% (Jul 8, 4:20 PM)30.18 "Hg (Jul 8, 4:20 PM)
Low54 °F (Jul 15, 4:20 AM)32% (Jul 19, 5:20 PM)29.65 "Hg (Jul 9, 3:20 PM)
Average68 °F75%29.94 "Hg
* Reported Jul 8 7:20 AM — Jul 23 7:20 AM, Varel, Weather by CustomWeather, © 2014

Note: Actual official high and low records may vary slightly from our data, if they occured in-between our weather recording intervals... More about our weather records

Advertising

Varel weather history for previous 24 hours

 ConditionsComfort  
Time TempWeatherWind HumidityBarometerVisibility
7:20 AM
Jul 23
66 °FPassing clouds.8 mph78%30.18 "HgN/A
6:20 AM64 °FPassing clouds.7 mph78%30.18 "HgN/A
5:20 AM64 °FPassing clouds.7 mph78%30.18 "HgN/A
4:20 AM66 °FPassing clouds.9 mph73%30.18 "HgN/A
3:20 AM66 °FPassing clouds.8 mph73%30.18 "HgN/A
2:20 AM66 °FPassing clouds.9 mph73%30.18 "HgN/A
1:20 AM70 °FPassing clouds.7 mph64%30.18 "HgN/A
6:20 PM
Jul 22
79 °FScattered clouds.15 mph54%30.12 "HgN/A
5:20 PM79 °FScattered clouds.15 mph54%30.12 "HgN/A
4:20 PM81 °FScattered clouds.17 mph42%30.12 "HgN/A
3:20 PM81 °FPassing clouds.20 mph45%30.12 "HgN/A
2:20 PM79 °FScattered clouds.21 mph45%30.12 "HgN/A
1:20 PM77 °FScattered clouds.22 mph51%30.12 "HgN/A
12:20 PM75 °FPartly sunny.18 mph61%30.12 "HgN/A
11:20 AM73 °FPartly sunny.18 mph65%30.12 "HgN/A
10:20 AM73 °FPartly sunny.16 mph65%30.12 "HgN/A
Weather by CustomWeather, © 2014

See weather overviewHow to use our weather pages